Regional Weather Roundup
Issued by NWS

Home | Current Version | Previous Version | Text Only | Print | Product List | Glossary On
Versions: 1 2 3 4 5 6 7 8 9 10 11 12 13 14 15 16 17 18 19 20 21 22 23 24 25 26 27 28 29 30 31 32 33 34 35 36 37 38 39 40 41 42 43 44 45 46 47 48 49 50
337
ASUS43 KIND 251009
RWRIN

WEATHER ROUNDUP FOR INDIANA
NATIONAL WEATHER SERVICE INDIANAPOLIS IN
600 AM EDT TUE JUL 25 2017

NOTE: "FAIR" INDICATES FEW OR NO CLOUDS BELOW 12,000 FEET WITH NO
SIGNIFICANT WEATHER AND/OR OBSTRUCTIONS TO VISIBILITY.

* - STATION DOES NOT REPORT WEATHER SUCH AS PRECIPITATION OR FOG.

+ - STATION NOT QUALITY CONTROLLED BY THE NATIONAL WEATHER SERVICE.
    USE DATA WITH CAUTION...ESPECIALLY DEWPOINT AND RELATIVE
    HUMIDITY OBSERVATIONS.

INZ001>003-010>013-019-020-251100-
NORTHWEST INDIANA

CITY           SKY/WX    TMP DP  RH WIND       PRES   REMARKS
KNOX *+          N/A     54  54 100 CALM      30.17S
LA PORTE +     CLEAR     56  55  98 CALM      30.19R
MICHIGAN CITY+   N/A     54  54 100 CALM      30.19R FOG
MONTICELLO +   CLEAR     58  57  95 CALM      30.16R
RENSSELAER +   CLEAR     57  55  94 NE3       30.17R
VALPARAISO     CLOUDY    58  58 100 NE3       30.18R FOG

$$

LMZ046-743>745-251100-
SOUTHERN LAKE MICHIGAN

STATION/POSITION TIME  TEMP    WIND        PRES    WAVE
                       AIR SEA DIR/SP/G            HT
                 (UTC) (F)     (DEG/KT/KT) (MB)    (FT)
BURNS HARBOR     0940   66     110/  2/  4 1022.0R
MICHIGAN CITY    0940   63     120/  5/  6   N/A
5NW MICH CITY    1000   67 74  130/  8/ 10   N/A     3

$$

INZ004-005-014>016-021>024-251100-
NORTH CENTRAL INDIANA

CITY           SKY/WX    TMP DP  RH WIND       PRES   REMARKS
GOSHEN         FOG       54  51  90 CALM      30.19R VSB 1/4
LOGANSPORT +   CLEAR     55  55 100 CALM      30.18R FOG
PERU/GRISSOM   PTCLDY    59  59 100 CALM      30.16R
ROCHESTER +    CLEAR     59  59 100 CALM      30.18R
SOUTH BEND     CLEAR     58  57  97 CALM      30.19R
WARSAW +       CLEAR     55  54  94 CALM      30.19R

$$

INZ006>009-017-018-025>027-251100-
NORTHEAST INDIANA

CITY           SKY/WX    TMP DP  RH WIND       PRES   REMARKS
AUBURN +       CLEAR     54  52  94 CALM      30.18R
FORT WAYNE     PTCLDY    57  54  89 CALM      30.18R
HUNTINGTON +   CLEAR     57  56  95 CALM      30.17R
KENDALLVILLE + CLEAR     54  53  97 CALM      30.19R

$$

INZ028-029-035-036-043>045-051>053-251100-
WEST CENTRAL INDIANA

CITY           SKY/WX    TMP DP  RH WIND       PRES   REMARKS
GREENCASTLE +  CLEAR     61  55  82 E3        30.14S
LAFAYETTE      CLEAR     59  57  93 E5        30.15R
TERRE HAUTE    CLEAR     63  58  83 E5        30.12S

$$

INZ030>032-037>040-046>048-054>057-064-065-251100-
CENTRAL INDIANA

CITY           SKY/WX    TMP DP  RH WIND       PRES   REMARKS
CP ATTERBURY + CLEAR     59  57  94 CALM      30.15S
FRANKFORT +    PTCLDY    59  58  96 SE3       30.17S
GREENWOOD *+   CLEAR    N/A N/A N/A E3        30.16R
INDIANAPOLIS   PTCLDY    64  57  78 E8        30.14R
-EAGLE CREEK   CLEAR     62  57  83 E5        30.15R
KOKOMO +       CLEAR     58  57  97 CALM      30.18R
MARION +       CLEAR     55  55 100 CALM      30.18R
MT COMFORT *+  CLEAR     55  55 100 CALM      30.16R
SHELBYVILLE    CLEAR     59  56  89 NE5       30.14R
ZIONSVILLE +   CLEAR     57  56  97 CALM      30.16S

$$

INZ033-034-041-042-049-050-058-059-251100-
EAST CENTRAL INDIANA

CITY           SKY/WX    TMP DP  RH WIND       PRES   REMARKS
MUNCIE         CLEAR     57  54  89 CALM      30.17R
RICHMOND +     CLEAR     54  54 100 E5        30.17S FOG

$$

INZ060-061-067>069-081>083-085>088-251100-
SOUTHWEST INDIANA

CITY           SKY/WX    TMP DP  RH WIND       PRES   REMARKS
EVANSVILLE     MOCLDY    71  67  87 E8        30.08R
HUNTINGBURG *+ CLEAR     68  65  90 NE7       30.10R

$$

INZ062-063-066-070>080-084-089>092-251100-
SOUTH CENTRAL AND SOUTHEAST INDIANA

CITY           SKY/WX    TMP DP  RH WIND       PRES   REMARKS
BEDFORD +      CLEAR     64  59  82 NE5       30.12R
BLOOMINGTON    CLEAR     65  58  78 E7        30.13S
MADISON *+     PTCLDY    64  59  82 NE6       30.16R
NORTH VERNON + CLEAR     61  59  94 E5        30.14R
SEYMOUR +      PTCLDY   N/A N/A N/A NE3       30.13R

$$





USA.gov is the U.S. government's official web portal to all federal, state and local government web resources and services.